Regional Weather Roundup
Issued by NWS Jackson, KY

Home | Current Version | Previous Version | Graphics & Text | Print | Product List | Glossary On
Versions: 1 2 3 4 5 6 7 8 9 10 11 12 13 14 15 16 17 18 19 20 21 22 23 24 25 26 27 28 29 30 31 32 33 34 35 36 37 38 39 40 41 42 43 44 45 46 47 48 49 50
000
ASUS43 KJKL 262319
RWRJKL

EAST KENTUCKY HOURLY WEATHER ROUNDUP
NATIONAL WEATHER SERVICE JACKSON KY
600 PM EST WED NOV 26 2014

NOTE: "FAIR" INDICATES FEW OR NO CLOUDS BELOW 12,000 FEET WITH
NO SIGNIFICANT WEATHER AND/OR OBSTRUCTIONS TO VISIBILITY.

* THESE REPORTS ARE NOT UNDER NWS QUALITY CONTROL AND MAY NOT
  REPORT WEATHER SUCH AS PRECIPITATION AND FOG.

KYZ079-080-083-085-087-088-110-112-115-119-120-270000
...EASTERN KENTUCKY...

CITY           SKY/WX    TMP DP  RH WIND       PRES   REMARKS
JACKSON        CLEAR     42  26  53 NW6       29.99F
LONDON         PTCLDY    43  23  45 W5        30.01S
SOMERSET*      MOCLDY    41  25  52 CALM      30.03S
MONTICELLO*    CLOUDY    42  28  58 CALM      30.05R
HARLAN APT*    CLEAR     43  21  42 W3        29.99S
HAZARD APT*    PTCLDY    45  25  45 W7        30.00
BLACK MTN*       N/A     32  23  69 SW2         N/A
PIKEVILLE APT* MOCLDY    41  30  65 NW6       29.98F
BIG SANDY*     PTCLDY    44  30  59 CALM      30.00S
MOREHEAD APT*  PTCLDY    39  28  65 CALM      30.03S
ASHLAND*       CLOUDY    39  28  65 CALM      30.00S
$$

KYZ035-036-041-042-044-050-067-078-099-270000
...CENTRAL KENTUCKY...

CITY           SKY/WX    TMP DP  RH WIND       PRES   REMARKS
MT STERLING*   PTCLDY    37  30  75 CALM      30.02F
FLEMING/MASON* CLEAR     36  28  75 N5        30.03F WCI  32
DANVILLE*      CLOUDY    37  30  75 CALM      30.02S
RICHMOND*      CLOUDY    39  28  65 CALM      30.00F
LEXINGTON      MOCLDY    39  28  64 S3        30.01F
FRANKFORT      CLOUDY    37  29  72 CALM      30.01F
$$

KYZ091>093-OHZ055-061-077-WVZ005-015-034-035-042-270000
...SOUTHERN OHIO/WEST VIRGINIA...

CITY           SKY/WX    TMP DP  RH WIND       PRES   REMARKS
COVINGTON      CLOUDY    36  25  64 NE5       30.02F WCI  32
COLUMBUS       CLOUDY    35  25  66 NW7       30.04S WCI  29
DAYTON         CLOUDY    31  24  75 N7        30.05S WCI  24
WILMINGTON     CLOUDY    33  24  69 VRB3      30.03F
HUNTINGTON     MOCLDY    41  30  65 CALM      30.01R
CHARLESTON     CLOUDY    37  34  89 CALM      30.02S FOG
PINEVILLE*     CLOUDY    39  39 100 MISG      30.04F FOG
BECKLEY        FOG       35  33  92 W9        29.97R VSB 1/4 WCI  28
BLUEFIELD      FOG       35  33  92 W6        29.97R VSB 1/4 WCI  30
$$

VAZ002-007-008-TNZ017-027-036-066-071-270000
...SOUTHWEST VIRGINIA/EAST TENNESSEE...

CITY           SKY/WX    TMP DP  RH WIND       PRES   REMARKS
WISE*          MOCLDY    39  34  81 CALM      29.97F
JONESVILLE*    CLEAR     41  27  56 CALM      30.02R
ABINGDON*      MOCLDY    38  36  92 CALM      29.99S
BRISTOL        PTCLDY    40  37  89 E3        30.00S
KNOXVILLE      CLOUDY    46  28  49 SW10      30.03R
OAK RIDGE      MOCLDY    50  22  33 SW6       30.04R
CROSSVILLE     CLOUDY    43  21  41 CALM      30.01F
NASHVILLE      CLOUDY    48  26  42 SE9       29.98F
$$

...KEY TO REMARKS...
VSB - VISIBILITY IN MILES
WCI - WIND CHILL INDEX
HX  - HEAT INDEX

$$



USA.gov is the U.S. government's official web portal to all federal, state and local government web resources and services.